Home > Weather > Rotterdam > Past weeks

Flag for Netherlands Past Weather in Rotterdam, Netherlands — Yesterday and Last 2 Weeks

Now
66 °F

More clouds than sun.


Feels Like: 66 °F
Forecast: 61 / 70 °F
Wind: 7 mph from West

Location: Rotterdam Zestienhoven Airport

Current Time: Jul 28, 2016 at 12:44:47 PM

Latest Report: Jul 28, 2016 at 11:55 AM


Visibility: N/A

Pressure: 29.95 "Hg

Humidity: 83%

Dew Point: 61 °F

Location of RotterdamLocation

Past Weather in Rotterdam — Graph

°F

Rotterdam Temperature Yesterday

Maximum temperature yesterday: 68 °F (at 11:55 AM)
Minimum temperature yesterday: 59 °F (at 6:25 AM)
Average temperature yesterday: 64 °F

High & Low Weather Summary for the Past Weeks

 TemperatureHumidityPressure
High91 °F (Jul 20, 2:25 PM)100% (Jul 18, 12:25 AM)30.27 "Hg (Jul 18, 12:25 AM)
Low50 °F (Jul 14, 3:55 AM)38% (Jul 20, 2:55 PM)29.80 "Hg (Jul 20, 1:55 PM)
Average68 °F77%30.08 "Hg
* Reported Jul 13 10:25 AM — Jul 28 10:55 AM, Rotterdam, Weather by CustomWeather, © 2016

Note: Actual official high and low records may vary slightly from our data, if they occured in-between our weather recording intervals... More about our weather records

Advertising

Rotterdam Weather History for the Previous 24 Hours

Scroll right to see more
 ConditionsComfort  
Time TempWeatherWind HumidityBarometerVisibility
10:55 AM
Thu, Jul 28
66 °FMostly cloudy.6 mph83%29.95 "HgN/A
10:25 AM66 °FCloudy.7 mph83%29.95 "HgN/A
9:55 AM66 °FPartly sunny.8 mph88%29.95 "HgN/A
9:25 AM66 °FOvercast.8 mph88%29.95 "HgN/A
8:55 AM66 °FOvercast.7 mph88%29.95 "HgN/A
8:25 AM66 °FPartly sunny.7 mph88%29.95 "HgN/A
7:55 AM64 °FPartly sunny.5 mph94%29.95 "HgN/A
7:25 AM64 °FBroken clouds.7 mph94%29.95 "HgN/A
6:55 AM64 °FMostly cloudy.2 mph94%29.95 "HgN/A
6:25 AM64 °FMostly cloudy.5 mph94%29.95 "Hg5 mi
5:55 AM63 °FMostly cloudy.3 mph100%29.95 "Hg4 mi
5:25 AM63 °FPartly cloudy.2 mph100%29.95 "Hg6 mi
4:55 AM64 °FPartly cloudy.2 mph94%29.95 "Hg6 mi
4:25 AM63 °FMostly cloudy.1 mph100%29.95 "HgN/A
3:55 AM64 °FMostly cloudy.2 mph94%29.98 "Hg5 mi
3:25 AM63 °FFog.1 mph100%29.98 "Hg3 mi
2:55 AM63 °FPartly cloudy.1 mph100%29.98 "Hg4 mi
2:25 AM63 °FLight rain. Partly cloudy.1 mph100%29.98 "Hg5 mi
1:55 AM63 °FPassing clouds.2 mph100%29.98 "Hg4 mi
1:25 AM64 °FPartly cloudy.2 mph94%29.98 "HgN/A
12:55 AM63 °FMostly cloudy.2 mph100%30.01 "HgN/A
12:25 AM64 °FMostly cloudy.2 mph94%30.01 "HgN/A
11:55 PM
Wed, Jul 27
64 °FPassing clouds.5 mph94%30.01 "HgN/A
11:25 PM64 °FPartly cloudy.5 mph94%30.01 "HgN/A
10:55 PM64 °FPartly cloudy.6 mph94%30.01 "HgN/A
10:25 PM64 °FOvercast.6 mph94%30.01 "Hg6 mi
9:55 PM64 °FMostly cloudy.6 mph94%29.98 "HgN/A
9:25 PM64 °FBroken clouds.9 mph94%29.98 "HgN/A
8:55 PM64 °FDrizzle. Broken clouds.10 mph94%29.98 "Hg6 mi
8:25 PM64 °FBroken clouds.13 mph94%29.98 "HgN/A
7:55 PM64 °FDrizzle. Broken clouds.12 mph100%29.98 "Hg3 mi
7:25 PM64 °FDrizzle. Broken clouds.13 mph94%29.98 "Hg4 mi
6:55 PM64 °FSprinkles. Broken clouds.10 mph94%29.98 "Hg4 mi
6:25 PM64 °FBroken clouds.16 mph94%29.98 "Hg4 mi
5:55 PM64 °FDrizzle. Broken clouds.13 mph94%29.98 "Hg3 mi
5:25 PM64 °FDrizzle. Broken clouds.14 mph94%29.98 "Hg2 mi
4:55 PM64 °FLight rain. Broken clouds.14 mph94%29.98 "Hg3 mi
4:25 PM64 °FDrizzle. Broken clouds.12 mph94%29.98 "Hg3 mi
3:55 PM66 °FLight rain. Partly sunny.13 mph88%29.98 "Hg4 mi
3:25 PM66 °FBroken clouds.14 mph83%29.98 "HgN/A
2:55 PM68 °FMore clouds than sun.18 mph78%29.98 "HgN/A
2:25 PM66 °FLight rain. Broken clouds.10 mph83%29.98 "HgN/A
1:55 PM66 °FDrizzle. Broken clouds.15 mph83%29.98 "HgN/A
1:25 PM66 °FBroken clouds.14 mph88%29.98 "HgN/A
12:55 PM64 °FRain. Mostly cloudy.13 mph88%30.01 "HgN/A
12:25 PM68 °FLight rain. Broken clouds.15 mph78%30.01 "HgN/A
Weather by CustomWeather, © 2016

See weather overviewHow to use our weather pages